Wind_Speed
60 58 56 53 52 50 48 47 46 43 42 42 42 42 42 42 43 44 44 44 44 44 44 43 42 39 37 38 39 39 36 34 34 34 34 32 29 26 23 23 25 26 26 26 26 28 29 30 31 31 32 35 37 35 34 35 34 31 28 26 23 19 17 15 12 10 11 12 13 12 11 10 9 8 9 9 10 11 12 12 12 13 14 14 16
63 62 62 59 56 54 52 49 48 47 45 43 42 41 41 41 42 44 45 45 45 45 44 43 41 39 37 36 36 37 36 34 35 35 33 31 29 26 24 24 25 26 26 26 26 27 28 29 30 30 32 35 36 34 33 33 32 28 25 24 20 16 15 12 10 10 13 14 14 13 11 10 10 10 11 11 12 12 12 12 13 13 14 15 15
63 65 65 62 58 55 54 52 51 50 49 46 43 42 41 41 41 43 45 46 46 45 44 43 42 39 36 35 34 35 35 34 35 35 33 31 29 26 25 25 25 26 25 25 25 27 28 28 29 30 32 35 34 32 33 32 29 26 24 22 17 15 13 10 8 11 14 15 15 13 10 11 12 12 12 12 12 12 12 12 13 13 14 15 15
52 58 61 59 56 54 54 54 52 52 51 49 46 44 43 42 41 43 45 46 46 45 44 42 41 38 36 34 34 34 34 34 34 35 33 31 29 26 25 25 26 26 25 24 25 26 27 28 29 30 32 34 33 32 32 30 26 23 22 20 15 13 11 7 8 11 14 16 15 12 10 11 12 12 12 12 11 11 12 12 12 13 14 16 17
47 48 52 53 55 55 54 54 53 52 52 50 49 47 45 44 43 44 44 45 45 45 44 42 39 38 36 33 33 34 35 34 34 35 33 31 29 26 25 26 26 26 24 23 25 26 27 27 28 30 32 32 31 31 32 28 24 22 21 18 13 12 9 5 7 11 14 15 14 10 9 10 11 11 11 11 11 11 12 12 13 14 16 17 18
55 49 47 48 51 54 54 54 54 52 52 51 50 48 48 46 44 44 44 44 44 43 43 42 40 39 37 33 33 35 36 36 36 36 33 30 28 26 26 26 26 26 24 24 25 25 26 27 28 29 31 31 30 31 31 25 21 20 19 17 12 10 7 4 6 10 12 14 13 9 8 8 10 10 10 10 11 12 13 13 15 17 18 19 20
58 56 51 47 48 52 54 55 54 53 52 51 50 49 48 47 46 45 44 43 42 41 42 42 40 40 38 33 33 36 37 37 37 36 33 30 27 25 27 26 26 26 24 24 25 25 25 26 27 28 29 29 29 30 29 23 19 19 18 15 12 9 6 4 5 8 11 13 11 8 7 7 8 9 10 11 12 13 14 15 17 18 19 20 21
52 56 55 51 49 50 51 52 54 54 53 51 50 49 48 47 46 45 44 42 40 40 41 41 40 40 38 34 34 36 38 37 37 37 34 29 26 26 27 26 26 26 24 24 25 25 25 25 26 27 28 27 28 30 27 20 17 18 17 14 11 8 6 5 5 7 9 11 10 6 5 6 7 8 9 11 12 13 14 16 18 19 20 21 22
49 51 53 53 49 47 47 48 50 52 53 53 51 49 48 47 46 45 43 41 39 39 40 40 39 39 37 35 34 36 38 37 35 36 34 29 26 26 27 26 26 26 24 24 25 25 24 24 25 27 27 26 27 29 25 18 16 17 16 13 10 9 7 6 6 7 8 9 8 5 4 6 6 7 9 10 11 12 13 15 18 19 21 22 22
51 51 52 53 50 46 43 42 45 49 51 53 52 50 49 47 46 45 42 40 39 39 39 37 36 37 37 35 34 36 38 37 33 35 35 29 26 26 27 26 26 26 24 24 25 25 24 23 25 26 25 26 27 28 22 16 15 16 14 12 10 9 8 7 7 8 8 8 7 4 3 5 6 7 8 9 10 11 13 15 17 19 20 22 22
53 55 54 52 50 48 43 38 42 45 47 51 52 50 49 48 47 45 42 40 40 40 39 36 34 36 37 36 35 36 38 38 34 36 34 28 26 26 26 26 26 26 25 25 26 24 23 23 24 24 24 25 27 26 20 14 14 14 12 10 9 8 9 9 8 8 8 7 5 3 3 5 6 7 8 9 10 11 12 14 16 18 20 21 22
54 57 56 51 50 52 48 41 42 42 42 46 49 50 49 48 46 44 42 41 41 41 39 36 33 34 36 36 36 36 39 39 36 36 34 28 27 26 25 25 25 27 26 25 26 24 23 23 24 23 23 25 26 24 18 13 12 12 9 7 7 8 9 10 9 9 8 6 4 2 4 5 6 7 8 9 10 11 13 14 16 18 20 21 22
57 58 59 54 52 55 53 48 45 43 42 44 46 48 48 47 46 43 42 42 42 41 39 36 34 34 35 37 37 38 39 39 38 36 33 29 28 27 25 24 25 27 27 26 26 25 23 22 23 22 22 24 25 23 16 12 11 9 6 5 6 8 10 10 10 9 8 6 4 4 6 6 6 7 8 9 10 12 13 15 16 18 19 21 22
60 60 60 57 53 53 54 51 48 47 45 43 43 46 47 47 46 43 42 42 41 40 40 38 35 34 35 38 39 39 39 39 38 35 33 31 29 27 25 24 26 28 27 27 26 25 23 22 23 21 21 23 24 21 15 11 9 6 3 3 5 7 9 9 9 8 7 6 4 6 7 6 7 7 8 9 11 13 14 15 17 18 19 20 20
64 61 60 57 53 51 51 53 52 51 49 45 42 44 46 46 45 44 42 42 41 40 39 38 36 34 35 38 39 40 40 40 38 35 34 32 28 27 26 25 27 28 28 27 25 24 23 22 22 21 21 22 23 19 14 10 7 3 1 2 4 6 7 7 7 7 7 6 5 7 7 7 7 7 8 9 12 14 16 17 17 18 19 20 20
65 64 61 57 54 50 49 51 52 52 50 47 44 45 46 46 46 44 43 42 42 40 38 38 37 34 35 38 40 40 41 41 39 37 35 31 28 28 28 27 27 28 28 27 25 24 22 22 22 20 19 21 21 18 13 9 5 3 2 2 3 4 6 7 8 7 7 6 6 7 7 7 8 8 8 10 12 15 17 17 18 19 19 20 20
66 65 62 59 56 52 48 45 45 46 47 45 44 45 46 47 46 45 43 43 42 41 38 38 37 35 35 38 39 41 42 42 40 39 36 31 30 30 29 27 28 29 28 27 25 23 22 21 22 19 18 19 20 17 13 9 5 5 4 3 3 5 7 9 9 8 7 6 6 6 6 7 7 7 9 11 13 15 17 18 19 19 20 20 21
66 65 63 60 57 54 49 45 41 41 43 42 42 43 44 46 46 45 44 43 41 41 38 38 38 36 36 38 39 41 43 43 41 41 38 33 32 31 29 28 30 30 28 27 25 23 21 21 22 19 17 18 18 16 12 9 6 6 6 5 5 7 9 10 10 9 8 6 4 4 4 4 4 7 10 11 13 14 16 18 19 20 21 21 21
66 65 63 60 56 53 50 48 45 42 42 41 41 40 42 44 45 45 44 42 40 40 38 38 39 38 37 38 39 41 43 44 43 43 40 35 33 31 29 29 31 32 30 28 26 23 21 22 22 19 17 17 17 15 12 9 8 8 8 7 6 8 10 11 11 10 8 6 4 2 0 1 4 8 10 11 12 14 16 18 19 20 21 21 21
67 66 64 62 58 54 52 50 48 44 41 39 39 38 39 42 45 45 44 42 40 39 37 37 40 40 38 38 40 41 43 46 46 45 41 36 33 31 30 31 32 33 33 30 27 24 22 22 22 19 17 17 16 14 13 10 10 10 10 8 8 9 11 11 12 11 10 8 6 4 3 4 6 8 9 10 11 13 16 17 19 21 22 21 21
68 68 66 65 61 57 54 52 50 46 40 37 34 32 36 40 44 45 43 41 40 39 37 37 40 41 39 39 41 42 44 46 47 46 42 37 34 32 32 33 33 34 34 33 31 27 24 22 22 19 17 17 16 14 12 11 12 12 11 9 9 10 10 11 11 11 11 10 9 7 6 5 6 7 8 10 11 13 15 16 18 21 22 22 21
70 69 68 67 64 59 56 54 52 46 40 36 32 31 37 41 42 43 41 38 38 39 38 38 38 41 41 41 42 43 44 46 48 47 42 38 34 33 34 35 34 35 35 35 34 30 25 24 22 19 17 18 16 14 12 12 14 14 12 11 11 10 10 9 9 9 10 10 10 10 8 6 6 7 9 10 11 13 14 16 18 21 23 23 21
71 70 70 69 66 62 58 56 53 48 42 40 38 36 38 41 40 40 38 34 34 36 38 38 38 40 42 42 42 43 44 46 48 47 44 39 35 33 35 36 36 36 35 36 36 32 27 25 24 20 17 18 17 15 13 13 15 15 14 12 12 10 9 8 7 7 7 8 9 9 9 8 7 7 8 10 11 13 15 17 18 20 22 23 21
73 71 70 69 67 65 62 59 57 53 48 45 44 41 39 41 43 42 38 35 33 33 36 39 39 40 42 42 43 44 45 47 47 47 44 41 38 34 34 36 37 36 36 37 37 34 29 26 24 21 17 18 18 16 14 15 16 17 15 13 12 10 7 6 5 4 4 5 6 7 8 8 8 7 7 9 11 13 15 17 18 20 22 22 20
74 72 71 70 68 67 65 61 59 59 56 51 47 44 43 43 45 44 41 40 37 34 35 37 38 40 42 42 43 45 48 48 47 46 45 44 41 37 34 36 37 37 37 38 39 36 30 26 25 21 17 18 19 17 16 16 17 18 16 14 12 10 7 5 3 1 1 3 6 7 6 6 6 6 7 8 10 12 14 16 18 19 20 20 19
74 73 72 71 70 69 68 64 61 61 60 56 50 47 46 45 43 43 43 43 42 38 37 37 37 38 41 44 46 48 49 49 48 47 47 46 45 42 38 37 38 38 39 39 40 37 32 27 25 21 17 18 19 18 17 17 18 20 18 16 13 10 8 6 5 4 4 4 6 7 6 4 4 5 6 7 9 12 14 16 17 18 18 18 16
74 73 72 72 71 70 70 67 64 62 60 58 54 51 49 47 44 43 43 43 44 42 39 36 35 36 40 46 49 50 50 49 48 48 48 48 47 46 43 39 39 40 40 40 40 38 33 29 26 21 17 17 18 18 18 18 19 21 20 17 14 12 10 9 7 7 6 6 6 7 7 5 4 3 5 7 9 12 14 15 17 17 16 15 14
74 73 72 72 72 71 71 69 66 63 61 59 57 55 52 49 46 46 44 43 44 43 39 35 37 43 47 49 50 51 51 50 49 49 49 49 49 48 47 43 40 41 42 42 41 38 35 31 27 22 18 17 17 16 18 19 20 21 22 19 17 15 13 11 10 9 8 7 8 7 7 6 6 5 5 6 8 11 13 15 16 16 16 14 12
73 74 72 71 72 71 72 71 68 64 63 61 59 58 56 51 48 48 48 46 43 42 40 37 39 47 51 50 51 52 52 51 50 50 50 51 51 49 49 46 43 42 42 43 42 39 36 34 29 23 19 19 17 15 16 19 20 22 22 22 20 17 16 14 12 11 9 8 8 8 7 7 7 7 7 7 8 9 11 14 15 15 15 13 11
73 74 74 73 72 72 72 73 71 66 63 62 60 59 58 53 49 47 47 47 45 43 42 41 43 49 51 50 50 52 53 52 51 51 51 51 51 50 49 49 48 46 43 42 43 41 39 36 32 26 22 21 20 17 16 17 20 22 23 23 22 20 19 17 15 13 11 10 9 9 8 7 8 8 9 9 8 9 10 12 14 14 13 12 11
71 73 74 74 74 74 73 75 74 69 65 64 63 60 57 55 52 47 44 45 45 44 44 46 50 53 52 51 52 52 53 53 52 52 52 50 50 50 51 51 51 50 47 44 43 43 41 38 33 29 25 24 24 22 19 17 19 22 23 24 24 23 21 19 17 15 13 11 10 10 9 8 8 9 10 10 10 10 10 12 13 12 12 12 11
71 72 72 73 74 74 74 75 76 73 68 66 65 62 58 54 52 48 46 45 43 43 47 51 55 56 53 52 53 53 53 53 53 52 52 49 48 51 53 53 53 54 51 48 46 46 43 39 36 32 29 27 26 26 24 21 19 20 23 25 25 24 22 20 18 16 14 11 10 10 10 10 10 10 11 11 12 11 11 12 13 12 12 12 11
70 72 73 72 73 75 75 75 77 76 72 69 67 66 62 57 53 50 47 49 49 48 52 56 57 57 55 53 53 54 53 52 53 53 52 48 47 51 55 55 55 55 54 52 50 50 46 42 39 36 32 30 29 28 28 27 23 21 21 23 24 23 22 21 18 17 14 12 11 11 11 11 12 12 13 13 13 13 12 12 13 12 11 12 12
68 71 74 74 74 76 76 75 77 78 76 73 70 69 66 63 61 57 53 55 57 54 55 59 60 59 57 55 54 56 56 53 53 54 54 51 48 49 53 56 57 57 56 55 54 52 48 45 43 39 36 34 33 31 31 31 29 26 23 22 22 22 22 21 19 18 16 14 13 12 12 12 13 14 15 15 15 15 13 13 13 13 12 12 12
67 70 73 76 77 79 78 77 78 80 81 79 76 74 72 70 68 65 62 63 63 59 56 60 63 62 59 57 55 56 58 57 54 53 55 56 52 47 48 54 58 59 57 56 55 52 49 46 45 43 40 37 36 35 34 34 34 33 29 26 24 24 23 23 21 20 19 17 15 14 13 14 14 14 16 16 17 17 16 14 14 14 13 13 13
65 69 73 76 79 82 82 80 80 81 84 85 84 81 80 78 76 73 71 69 67 64 61 59 61 61 60 58 56 56 58 60 58 55 55 58 55 48 45 49 55 59 58 55 54 52 49 47 47 45 43 41 40 39 38 37 36 37 36 33 30 29 27 27 25 24 22 21 20 18 16 16 16 16 16 17 18 18 18 17 15 15 15 16 16
63 66 70 75 79 83 84 83 83 84 85 87 88 87 86 85 83 80 78 75 72 68 65 62 61 61 60 59 59 58 59 61 61 58 57 58 57 54 51 48 51 57 58 55 53 52 50 48 48 47 45 43 42 41 41 40 39 39 40 40 37 35 32 30 30 28 26 26 26 24 20 19 19 19 18 18 19 19 19 18 17 17 17 19 19
59 63 67 72 77 81 84 84 85 86 86 87 89 89 89 88 88 86 84 82 78 73 69 67 65 66 65 63 63 61 59 61 64 62 60 60 60 59 58 56 53 54 56 56 53 52 51 50 49 47 46 45 44 43 43 42 42 42 42 43 43 41 37 34 33 30 28 28 29 28 25 22 22 22 21 20 20 20 19 20 19 18 19 20 22
56 60 64 68 73 78 82 84 86 87 87 88 90 91 90 89 91 91 89 87 85 81 78 74 71 70 69 68 67 64 61 61 65 67 65 63 63 63 63 61 57 54 56 57 55 53 52 52 51 49 47 47 47 46 44 44 44 45 45 46 46 44 43 40 38 35 33 32 32 31 29 26 25 25 24 23 23 22 20 20 20 20 21 22 22
53 57 61 65 69 75 79 83 87 88 88 88 90 93 92 90 92 93 92 89 88 86 84 81 77 73 71 71 71 69 66 64 66 70 70 68 68 68 67 63 59 57 57 57 57 56 55 54 52 50 48 48 48 46 45 45 45 46 47 48 47 47 47 46 44 42 40 38 36 34 32 30 27 26 26 27 26 25 22 22 21 20 22 24 23
51 55 58 62 65 70 75 80 85 88 90 90 90 93 94 93 92 93 93 91 90 89 86 84 81 78 75 75 75 74 72 70 70 72 74 74 72 71 71 68 65 64 61 58 58 58 57 55 53 51 49 48 47 46 45 44 43 44 47 46 46 49 50 48 48 47 45 43 39 36 35 33 29 27 28 29 29 27 24 23 22 20 23 26 25
48 51 55 59 62 66 71 76 81 86 90 91 92 94 96 96 95 94 94 93 92 91 89 87 85 82 80 79 78 77 75 74 74 75 76 77 75 74 73 72 71 70 66 63 60 58 59 59 55 53 52 49 47 46 45 42 41 43 45 45 45 47 49 49 49 49 46 44 42 38 36 35 33 31 31 31 30 28 25 23 23 22 24 27 27
45 48 51 55 59 63 67 71 76 82 86 90 92 94 96 99 99 98 97 95 94 93 92 90 88 86 84 83 81 79 78 78 78 77 77 77 77 78 77 76 75 73 70 68 63 58 60 62 58 56 56 53 51 49 46 44 43 43 44 44 44 44 45 47 50 50 48 44 42 39 37 37 36 34 34 34 32 29 25 23 23 24 25 27 28
43 45 49 52 55 58 62 66 71 76 81 86 91 94 96 98 101 102 101 99 98 97 95 94 92 90 89 87 85 82 81 81 81 80 79 78 79 81 81 80 80 77 74 73 69 63 60 60 60 60 59 58 56 54 51 48 46 45 44 41 41 42 43 44 48 50 49 46 43 39 38 39 39 38 37 37 35 31 27 23 23 25 26 27 28
40 42 45 49 51 54 56 60 65 70 75 81 87 92 96 98 100 102 104 103 101 100 99 98 97 95 93 91 89 87 84 83 84 84 82 81 80 81 82 83 82 80 77 75 74 71 64 60 60 62 61 59 58 57 56 53 50 48 46 41 39 40 41 42 44 46 47 46 45 41 39 40 42 42 41 40 37 34 30 26 25 25 27 28 28
38 40 42 44 47 48 50 54 58 64 69 74 80 86 92 96 99 102 104 105 104 103 101 101 100 98 96 95 93 90 88 86 87 86 85 84 84 83 84 83 82 81 79 77 75 73 69 64 63 64 63 60 59 59 59 57 55 52 49 46 44 43 42 42 43 44 45 44 43 42 41 42 44 43 43 42 39 37 34 31 28 28 28 29 28
37 39 41 42 43 45 46 48 52 57 63 67 73 79 85 91 97 100 103 105 106 105 103 102 101 100 99 98 96 94 92 90 90 89 88 87 87 87 86 86 85 83 82 81 79 75 72 68 65 66 66 63 62 62 61 60 58 55 53 51 50 48 46 44 43 44 45 43 41 41 43 44 45 45 45 45 42 39 38 36 33 32 31 31 30
33 36 38 40 41 43 44 45 47 51 56 62 67 71 77 83 90 97 101 104 105 106 105 104 104 103 102 101 99 98 96 94 94 93 91 90 90 90 89 89 88 87 86 85 83 79 76 72 69 68 69 68 66 64 63 62 61 59 57 55 54 52 50 48 46 44 45 43 41 42 45 46 46 46 46 48 46 42 41 40 39 38 35 33 33
28 31 34 37 39 40 42 43 44 46 50 56 61 66 70 76 81 89 97 102 105 106 106 106 106 105 105 104 103 101 99 98 98 97 95 94 93 92 92 91 91 90 90 89 87 83 80 77 74 72 71 71 69 67 65 63 63 63 60 57 57 56 52 51 50 48 46 43 40 42 45 47 48 48 47 49 49 46 44 43 44 43 40 36 35
25 27 30 32 35 37 39 41 42 44 46 50 56 61 66 70 75 81 88 96 103 106 107 107 107 108 108 107 106 105 103 102 101 100 99 98 96 95 94 94 94 93 93 92 90 88 85 82 80 77 75 74 73 72 70 68 67 67 63 61 61 59 54 54 54 52 48 46 43 44 46 48 50 50 50 51 51 49 48 47 47 47 44 41 38
25 27 28 30 31 33 35 37 39 41 43 46 51 57 62 67 71 75 81 89 97 103 107 109 109 110 110 110 109 108 107 106 104 104 103 102 101 99 97 96 96 96 96 95 94 92 90 87 85 82 80 78 77 75 74 74 73 71 68 65 66 64 60 58 58 54 51 49 49 49 48 49 50 50 50 51 52 52 51 49 49 49 48 46 42
Wind_Direction
247 248 248 252 256 253 251 253 253 253 254 255 255 256 258 259 259 260 261 260 260 260 260 260 261 262 263 260 257 254 254 256 257 257 259 263 268 274 281 288 293 296 302 308 315 322 325 326 328 329 331 332 332 332 331 332 332 333 337 339 343 351 360 6 5 4 9 8 3 3 8 16 26 43 62 75 80 74 65 56 46 40 35 30 28
248 250 251 255 256 252 251 255 255 255 257 258 258 258 259 259 260 261 261 260 260 260 260 261 261 262 262 260 256 253 251 251 253 254 257 261 267 274 280 286 291 295 301 307 315 321 324 326 328 329 330 330 331 330 330 332 332 335 338 341 347 356 5 10 6 8 10 5 1 3 17 39 56 67 77 81 77 66 56 48 42 37 32 27 27
251 252 254 255 255 251 251 254 257 257 258 260 259 260 260 258 259 260 260 260 260 260 260 262 263 261 260 258 255 251 248 248 251 253 254 259 266 273 279 283 288 294 300 307 315 320 323 326 328 328 328 329 329 329 330 331 333 336 339 342 350 0 9 13 8 11 10 5 3 8 36 63 70 77 82 79 70 58 49 44 40 34 30 27 27
254 254 254 253 252 251 251 253 256 258 258 259 259 261 260 257 257 258 259 260 260 261 261 263 263 261 259 256 252 248 245 245 249 252 252 256 264 270 276 282 287 292 299 307 313 318 323 326 327 327 327 328 328 328 329 331 332 335 339 344 351 3 13 15 9 12 10 6 6 19 53 71 76 84 85 76 64 56 49 42 37 33 32 30 27
244 249 250 251 251 251 252 252 254 255 256 256 257 259 259 256 257 257 258 259 260 262 262 263 263 261 257 254 249 245 242 242 246 249 250 254 261 267 273 279 285 291 298 305 311 317 322 325 326 326 326 327 327 327 329 330 332 334 338 344 351 2 13 14 8 13 10 5 10 30 59 71 83 90 82 71 61 54 47 40 37 34 33 30 26
236 239 242 244 247 248 248 249 250 251 252 253 255 257 256 256 257 258 259 259 260 261 262 262 262 260 256 251 246 243 240 240 244 247 248 252 259 265 271 277 283 289 297 303 309 315 321 324 326 326 326 326 326 326 329 329 331 333 337 344 348 359 10 5 1 10 9 4 11 35 57 72 89 88 73 63 55 46 41 38 36 34 32 29 26
236 237 239 240 242 243 244 244 245 247 249 250 253 255 255 256 257 257 258 258 258 260 260 261 261 258 254 247 242 240 239 239 243 247 246 250 258 265 270 276 281 287 294 301 307 314 321 325 326 326 326 325 325 326 329 329 329 332 336 342 345 351 1 351 344 1 6 3 9 34 58 80 93 79 62 54 47 40 36 35 33 31 29 27 26
237 238 241 244 244 245 246 246 246 247 248 248 251 252 254 256 257 257 257 257 257 257 257 258 259 256 251 244 239 237 237 238 243 246 245 249 257 264 270 274 279 285 292 299 306 313 321 327 326 325 325 324 324 326 328 328 327 331 334 339 341 341 347 342 333 346 357 360 6 28 60 91 95 72 57 51 44 38 33 30 28 27 26 25 25
235 237 241 243 245 248 252 253 252 250 250 250 251 251 253 256 257 258 257 257 257 255 255 256 256 255 250 243 237 236 236 236 242 246 244 248 255 262 269 272 278 285 291 298 305 312 322 328 326 325 325 323 324 325 327 326 326 329 332 335 337 333 336 340 336 338 347 355 2 21 69 101 93 66 55 48 43 38 32 27 24 23 23 24 24
231 233 239 239 240 245 248 252 254 253 252 252 252 252 253 256 257 257 257 256 256 255 253 253 254 253 249 241 235 234 236 235 240 245 242 245 254 260 267 271 278 284 290 297 303 312 323 328 327 325 323 322 323 325 326 325 325 328 329 332 334 330 333 340 340 338 341 350 360 18 83 105 85 61 50 45 42 37 30 25 21 21 22 24 24
230 231 237 236 234 238 238 241 249 253 253 252 251 252 252 255 257 257 256 255 255 255 253 251 252 251 247 241 235 232 233 233 237 243 240 243 251 257 265 270 277 284 289 296 301 311 323 328 327 325 322 321 322 324 325 322 323 327 327 330 334 333 337 340 343 341 339 349 3 29 102 104 78 55 45 40 40 35 29 24 20 20 22 24 24
229 229 234 234 232 233 232 234 243 248 250 250 250 250 251 254 256 256 256 255 255 255 253 250 248 248 244 240 235 231 232 232 235 241 239 241 250 255 262 269 276 282 287 293 300 310 321 326 327 324 321 321 322 323 322 318 323 325 324 331 337 341 343 342 345 343 344 360 22 73 112 102 73 51 42 38 35 29 25 22 19 19 22 23 24
229 228 231 234 234 233 231 232 238 242 245 248 249 249 250 252 254 255 255 254 255 254 253 249 245 244 241 237 233 231 232 231 234 239 238 241 249 254 259 266 274 279 284 291 299 308 318 325 326 323 319 320 321 322 319 314 320 321 320 341 347 348 348 345 349 350 356 17 51 106 117 99 68 50 44 36 28 22 20 19 17 18 21 22 22
231 229 231 234 236 235 233 233 235 238 242 248 251 249 248 251 253 253 254 253 253 254 254 250 245 241 237 234 232 232 232 231 233 237 238 241 248 253 257 264 270 275 281 288 296 305 315 324 326 321 318 319 320 320 314 310 315 312 316 1 1 356 355 353 359 2 11 33 75 114 112 91 67 55 46 32 21 17 15 15 15 17 18 21 22
231 231 230 233 236 236 234 233 234 236 240 245 250 249 246 248 251 252 252 253 252 253 256 253 246 239 235 233 231 231 231 230 232 234 235 240 246 251 255 259 266 271 278 284 291 301 311 322 325 320 316 317 318 317 310 305 306 286 276 36 17 10 13 15 19 22 29 51 94 114 103 82 68 57 42 27 16 11 10 11 13 15 17 19 21
230 231 230 230 234 237 236 235 235 237 240 243 248 248 244 243 247 250 251 252 251 252 257 257 248 239 234 232 230 230 231 229 231 233 234 238 244 249 252 256 262 268 272 278 286 296 307 319 323 319 315 315 316 315 306 298 290 237 174 89 51 42 48 45 43 41 46 69 105 112 97 80 70 54 34 18 8 6 6 7 10 14 16 17 18
229 230 230 230 233 236 236 234 234 239 241 242 245 246 243 241 244 249 251 252 250 251 258 260 251 240 233 231 229 229 231 230 231 233 233 236 242 246 249 253 259 263 267 273 281 292 303 315 321 317 312 313 313 312 302 290 266 210 170 125 97 82 76 65 57 53 55 74 111 118 101 85 68 43 21 7 0 2 4 4 8 13 15 15 16
228 228 229 229 231 233 233 230 229 234 237 239 243 246 246 243 244 248 251 252 251 250 258 261 253 242 233 231 229 228 229 229 230 232 232 234 241 244 248 253 258 261 263 268 277 288 299 310 317 315 309 309 310 308 298 280 246 204 171 144 125 105 91 78 68 62 59 67 99 126 119 89 47 14 2 355 353 357 1 2 5 10 12 13 14
228 228 227 227 228 230 231 230 228 230 235 239 243 248 250 246 244 248 251 252 252 251 257 261 254 244 234 230 230 228 228 228 230 232 231 234 240 242 246 253 258 260 262 266 275 285 294 304 313 312 307 305 306 305 293 271 235 201 173 155 142 118 100 87 77 71 66 61 62 75 71 331 339 342 343 344 348 354 358 360 2 6 8 10 12
227 227 226 224 226 228 230 230 229 229 233 238 243 251 255 251 245 248 252 253 252 252 258 260 253 245 236 230 230 228 228 229 231 233 231 233 240 244 246 251 257 262 263 266 273 282 289 298 307 308 303 298 300 299 288 264 231 201 175 162 154 129 107 94 84 78 73 66 53 34 359 333 330 335 340 344 350 356 0 2 4 5 6 7 9
227 227 226 224 225 227 228 228 227 226 227 233 242 250 254 251 247 248 251 254 253 253 258 259 253 247 238 231 230 229 228 230 232 233 231 232 241 249 251 252 257 262 265 268 273 280 286 291 300 304 298 291 292 291 280 257 228 202 179 170 161 138 117 102 91 83 76 68 58 43 22 358 347 349 353 357 360 3 5 6 5 4 4 4 5
227 226 226 225 224 224 225 224 224 223 222 227 232 238 244 247 248 250 250 252 253 253 258 260 255 249 242 233 231 231 230 230 233 233 230 231 240 252 255 253 255 259 263 267 271 277 282 286 295 302 294 285 285 282 271 250 226 203 183 174 165 148 128 113 100 88 78 68 59 52 41 23 10 7 9 10 9 8 7 5 3 2 1 1 2
227 225 225 226 224 222 222 222 221 219 219 223 223 225 235 240 241 244 243 243 248 253 258 261 257 251 245 238 232 232 232 232 234 234 230 229 236 249 254 253 253 254 258 264 269 273 278 281 289 298 291 280 279 276 264 245 224 205 188 177 169 157 144 129 112 94 77 61 51 49 47 39 29 20 16 15 11 6 3 0 360 359 358 358 357
226 225 224 225 224 221 220 221 220 217 216 219 220 220 226 229 230 233 231 228 237 247 254 259 260 255 249 241 235 234 234 233 234 236 233 230 233 242 250 252 253 253 254 260 265 269 273 275 282 292 289 278 275 271 258 243 225 207 192 182 175 169 165 154 132 104 68 41 27 29 39 42 36 27 18 14 8 3 360 359 358 357 355 353 353
225 226 224 224 223 220 219 220 221 219 217 217 219 220 224 226 227 229 228 223 224 234 245 252 257 256 250 243 236 234 234 234 234 235 234 232 231 236 244 250 253 253 253 257 261 265 267 269 275 284 285 274 271 268 255 240 226 211 197 189 184 182 187 189 176 157 9 359 357 358 14 32 34 29 21 13 6 2 359 358 358 357 353 349 349
224 225 225 224 222 219 218 219 220 221 220 219 219 221 224 225 223 224 226 224 221 226 234 241 249 253 248 242 236 234 233 233 233 233 233 232 231 233 238 245 251 252 252 253 257 260 263 264 268 277 280 270 266 265 254 239 227 216 203 196 194 198 206 214 234 268 294 313 329 337 344 1 16 18 14 5 1 1 0 360 359 357 352 346 348
223 225 225 224 222 219 218 218 219 220 220 219 219 221 224 226 222 220 223 226 225 226 229 233 242 247 245 241 237 234 233 232 232 232 232 231 231 232 234 240 247 251 251 251 253 256 259 260 262 269 272 264 261 261 253 240 229 220 211 204 204 210 217 228 249 273 287 293 306 320 328 329 325 339 348 346 350 355 358 359 359 356 352 349 353
222 223 225 224 222 219 218 217 217 218 219 218 217 220 223 225 223 220 221 224 227 229 228 229 238 244 246 244 239 235 234 233 231 231 230 231 232 233 234 235 242 249 250 250 250 253 256 258 259 262 262 256 253 255 251 242 231 224 217 212 212 216 222 233 249 264 274 282 290 304 316 317 303 297 309 324 336 345 351 353 355 354 352 354 359
222 222 222 223 222 220 219 217 215 216 219 218 216 219 222 224 223 222 222 223 226 230 230 229 236 245 247 245 240 235 234 233 231 230 230 231 232 235 235 234 238 245 248 249 249 251 254 257 257 258 257 249 245 249 249 242 234 227 222 218 219 221 225 234 245 254 261 267 277 290 304 309 301 292 292 302 317 330 339 345 348 349 349 354 360
223 221 221 223 224 221 219 217 215 215 217 217 216 219 221 222 224 224 223 225 227 230 232 232 236 243 245 244 240 236 233 233 232 230 230 231 234 237 237 236 237 240 244 247 249 251 252 255 256 255 254 249 242 243 246 242 235 229 225 222 223 225 229 235 241 246 249 253 263 277 292 303 303 298 293 294 302 313 324 334 340 341 342 348 353
224 222 222 223 225 223 220 217 216 216 216 216 217 219 220 221 223 225 225 226 227 231 235 235 237 240 242 242 240 236 233 232 232 231 231 231 235 238 238 238 238 238 241 243 246 249 251 252 253 252 252 251 245 241 242 242 237 230 227 225 225 227 230 234 238 239 240 245 253 265 279 292 302 305 303 298 297 303 310 320 329 331 332 338 342
225 223 222 223 225 224 221 218 217 216 216 215 216 218 218 217 218 221 224 223 225 231 235 237 238 240 239 239 239 236 233 232 232 232 232 232 236 240 239 238 239 239 240 241 243 247 249 250 250 249 249 251 247 243 241 242 240 234 230 227 227 228 229 231 233 234 237 244 253 264 274 284 293 301 306 305 299 297 300 308 316 318 320 326 329
226 224 222 221 222 223 222 219 217 217 216 215 216 217 217 214 213 215 219 222 223 229 234 235 237 239 238 237 237 234 231 231 232 232 230 230 237 242 239 238 239 239 240 241 244 247 248 248 248 246 247 249 248 245 242 242 241 237 234 231 230 230 230 230 231 233 240 249 258 268 277 284 290 294 298 303 302 298 294 297 306 309 310 315 319
226 224 222 220 220 221 221 220 218 217 217 215 215 216 215 213 211 210 213 218 221 226 232 234 235 237 237 235 235 232 228 227 231 232 229 227 235 242 241 238 239 239 240 241 244 246 245 244 246 245 244 246 247 245 243 243 242 240 237 234 233 233 232 232 234 238 244 252 260 269 277 285 291 293 294 296 298 299 296 291 295 300 301 304 308
226 225 223 221 220 219 220 221 219 217 217 216 214 214 213 213 212 210 211 214 217 222 229 231 232 234 235 234 233 233 228 224 227 231 230 228 232 239 243 242 240 239 240 241 243 244 241 240 243 244 243 243 245 245 243 242 242 243 240 237 236 237 237 239 242 247 253 259 266 272 278 283 288 291 294 294 294 296 297 293 290 291 292 294 297
228 226 225 223 221 219 220 222 221 219 218 217 215 214 214 214 212 211 212 213 214 219 224 228 230 232 234 234 233 232 230 226 225 228 229 229 230 233 239 244 243 241 240 239 240 240 239 237 239 242 243 242 242 244 243 241 241 243 243 241 239 241 243 246 248 253 259 265 272 279 282 284 286 287 289 291 292 292 295 294 289 286 286 288 290
232 229 227 225 223 221 221 222 223 221 219 218 218 217 217 217 216 213 214 216 216 219 222 225 228 230 231 232 231 231 231 228 226 226 228 229 230 230 232 238 243 243 240 237 238 239 238 237 237 240 242 241 240 241 242 241 239 241 243 244 244 244 245 248 251 253 259 267 275 280 283 285 285 283 282 284 286 287 289 291 290 285 282 283 287
234 232 230 228 226 224 223 223 224 223 221 219 220 220 219 220 219 218 218 220 222 222 223 224 226 228 229 230 230 230 230 229 227 227 227 228 229 229 230 233 238 243 241 236 236 239 239 239 238 239 240 239 239 239 239 240 239 239 242 244 246 247 247 249 250 251 256 265 273 276 278 281 282 281 278 276 276 279 282 285 286 286 282 280 282
236 235 233 231 229 227 225 224 224 224 223 220 220 221 221 221 221 221 221 222 224 224 223 223 224 226 228 230 231 230 230 230 229 227 227 228 227 228 230 232 235 243 244 238 236 237 238 240 239 238 238 238 239 240 239 239 240 240 242 244 247 249 250 250 249 249 254 262 267 270 271 273 277 277 276 272 269 270 274 277 280 283 283 281 280
239 238 236 234 232 229 227 226 225 224 225 224 222 221 222 222 222 223 223 223 225 225 225 224 224 225 226 228 229 229 229 229 228 228 227 228 228 227 229 230 231 237 241 239 237 237 236 239 240 238 237 237 238 241 241 241 242 243 244 246 248 251 252 253 252 252 254 259 263 266 266 268 270 271 271 270 267 266 267 270 274 278 282 283 284
243 242 240 238 236 233 230 228 227 226 226 226 225 223 223 223 223 224 224 224 225 226 226 225 225 225 226 227 228 228 228 227 228 227 227 227 228 228 228 228 228 232 235 235 237 238 236 237 240 240 238 236 236 238 241 244 246 248 249 249 251 252 253 255 256 256 257 258 261 263 265 266 267 265 265 266 265 265 266 266 268 273 279 282 285
248 246 244 242 240 238 234 231 229 228 227 227 227 226 224 224 224 225 225 225 225 225 225 226 226 226 227 228 229 229 229 229 229 229 228 228 228 229 229 228 228 231 233 233 234 236 236 235 237 238 238 237 237 238 240 243 247 251 254 253 253 254 255 255 256 259 260 260 260 260 262 265 265 261 260 262 263 265 266 264 264 267 272 278 283
250 249 248 246 244 242 240 236 233 231 229 228 228 227 226 225 225 226 227 226 226 225 226 227 228 228 228 229 229 230 230 230 231 231 231 230 230 230 230 230 230 231 235 235 234 235 235 234 235 238 238 237 238 238 238 239 242 246 252 255 256 256 257 256 256 258 261 261 261 260 260 263 263 258 255 256 259 263 265 264 263 264 267 273 279
252 251 250 249 247 245 244 242 239 235 233 230 228 228 228 227 227 227 228 228 228 228 228 229 230 230 231 230 230 230 230 231 232 232 233 232 232 232 232 233 234 235 237 238 236 234 234 234 235 237 238 238 240 240 239 239 240 242 246 252 256 257 257 257 256 257 259 261 262 262 261 260 259 255 251 252 256 260 261 263 266 266 267 271 276
253 253 252 251 250 248 246 245 244 241 237 234 231 229 228 229 228 228 228 229 230 230 230 231 231 232 231 231 231 230 230 231 232 232 233 234 234 235 235 235 237 238 239 240 238 235 234 234 234 236 238 239 241 242 241 241 242 242 241 243 249 252 253 255 256 256 258 259 260 261 260 260 259 255 251 251 254 256 258 261 266 268 269 272 276
255 255 255 255 253 251 248 246 246 244 242 239 235 232 229 229 229 229 229 229 230 230 230 231 232 232 232 231 231 231 230 231 232 232 233 234 234 236 237 238 239 240 241 242 241 238 236 233 232 235 237 238 239 240 241 242 242 242 240 239 242 245 246 249 252 253 254 256 258 258 257 258 260 257 253 251 253 255 257 258 262 265 269 273 276
257 257 258 258 258 256 252 248 246 245 244 242 239 236 233 230 230 230 230 230 230 230 230 231 231 232 232 232 232 232 231 231 232 232 232 233 234 235 237 239 240 240 241 242 242 242 240 237 233 232 234 236 238 238 240 242 243 244 243 242 241 242 244 246 247 248 249 250 253 254 253 254 256 257 255 253 253 255 257 258 261 264 268 272 274
261 261 261 261 260 260 257 252 248 246 245 243 241 239 237 233 231 230 230 230 231 231 231 231 231 232 232 233 233 233 232 232 232 232 233 233 234 235 237 238 239 240 241 242 242 243 243 242 239 235 233 234 237 238 240 242 243 243 244 244 244 243 244 246 246 246 247 247 249 252 252 251 252 252 253 254 256 257 259 262 265 267 270 272 272
267 266 265 264 264 263 261 259 254 249 246 244 242 240 239 236 233 231 230 230 230 231 231 231 231 231 232 233 234 234 233 233 233 233 233 234 234 235 236 237 239 240 241 242 243 243 243 243 243 241 238 236 237 239 240 241 242 242 241 243 245 245 244 245 246 245 246 246 246 249 251 251 250 248 249 252 256 260 261 265 269 271 273 274 273
272 269 268 267 266 264 263 262 259 254 249 245 243 241 239 237 235 233 231 230 230 231 231 232 232 231 232 233 234 234 234 234 234 234 235 235 235 235 236 237 238 239 240 241 243 243 244 243 243 243 242 241 240 241 242 242 243 243 242 241 244 244 243 244 245 244 243 243 243 242 244 248 248 247 248 250 254 259 263 265 269 272 273 275 275
274 273 271 269 267 265 263 261 260 258 253 248 243 241 239 238 236 234 232 231 230 230 231 231 232 232 232 232 233 234 235 235 234 234 235 236 235 235 236 237 238 239 240 241 242 243 243 244 243 243 243 242 242 242 243 244 244 245 245 243 243 244 243 243 245 245 243 243 243 242 242 246 247 247 249 251 251 254 260 264 267 269 270 272 275
Height
10778 10780 10781 10782 10784 10785 10785 10785 10786 10787 10788 10789 10790 10792 10793 10793 10793 10794 10795 10796 10797 10798 10798 10798 10800 10801 10802 10803 10803 10804 10804 10804 10804 10804 10805 10805 10806 10805 10805 10804 10803 10802 10801 10800 10799 10797 10795 10794 10792 10790 10788 10785 10783 10780 10777 10774 10771 10769 10766 10764 10761 10760 10758 10756 10754 10753 10751 10749 10748 10746 10745 10743 10742 10742 10741 10741 10741 10741 10740 10739 10738 10737 10735 10734 10732
10774 10775 10777 10778 10779 10780 10781 10782 10783 10784 10784 10785 10786 10787 10789 10790 10790 10790 10791 10792 10793 10794 10795 10795 10796 10798 10799 10799 10800 10800 10800 10800 10800 10801 10802 10803 10803 10803 10803 10802 10801 10799 10799 10798 10797 10795 10794 10792 10790 10788 10786 10784 10782 10779 10776 10773 10770 10767 10765 10763 10761 10759 10757 10756 10755 10753 10752 10750 10748 10746 10745 10744 10743 10742 10742 10742 10742 10742 10741 10740 10739 10737 10735 10733 10731
10770 10770 10771 10773 10774 10776 10777 10778 10779 10780 10781 10782 10782 10783 10784 10786 10787 10787 10787 10788 10789 10791 10792 10792 10792 10794 10795 10796 10796 10797 10797 10797 10798 10799 10800 10801 10801 10801 10801 10800 10799 10798 10797 10796 10795 10793 10792 10790 10789 10787 10784 10782 10780 10777 10775 10772 10769 10767 10764 10762 10760 10759 10757 10756 10755 10754 10752 10750 10749 10747 10746 10744 10744 10743 10743 10743 10743 10742 10741 10740 10739 10737 10735 10733 10731
10764 10762 10763 10766 10768 10770 10771 10773 10774 10775 10777 10778 10778 10779 10780 10782 10783 10783 10784 10785 10785 10787 10788 10788 10789 10790 10792 10793 10793 10794 10794 10795 10795 10796 10797 10798 10799 10799 10799 10798 10797 10796 10795 10794 10793 10791 10790 10788 10786 10785 10783 10781 10778 10776 10773 10771 10768 10766 10764 10761 10760 10759 10758 10756 10755 10754 10752 10751 10749 10748 10746 10745 10744 10744 10744 10744 10743 10742 10741 10740 10738 10737 10735 10733 10731
10754 10753 10754 10757 10760 10762 10764 10766 10768 10770 10771 10772 10773 10774 10775 10777 10778 10779 10780 10781 10781 10782 10783 10784 10786 10787 10788 10789 10790 10791 10791 10792 10792 10793 10794 10796 10797 10797 10797 10796 10795 10794 10793 10792 10791 10789 10788 10786 10785 10783 10781 10779 10777 10774 10772 10770 10767 10765 10763 10761 10759 10758 10757 10757 10756 10754 10753 10751 10750 10748 10747 10746 10745 10745 10745 10744 10743 10742 10741 10740 10738 10737 10735 10733 10731
10743 10745 10746 10748 10750 10753 10755 10758 10761 10762 10764 10765 10767 10768 10769 10771 10773 10774 10776 10777 10777 10778 10778 10779 10781 10783 10784 10786 10787 10788 10789 10789 10789 10790 10792 10793 10794 10795 10795 10795 10793 10792 10791 10790 10789 10787 10786 10784 10783 10781 10779 10777 10775 10773 10771 10769 10766 10764 10762 10760 10759 10758 10757 10756 10755 10754 10753 10752 10750 10749 10748 10747 10747 10746 10745 10745 10744 10743 10742 10740 10739 10737 10735 10733 10731
10739 10741 10742 10743 10743 10744 10747 10750 10753 10755 10757 10759 10761 10763 10764 10766 10768 10769 10771 10772 10773 10773 10774 10775 10777 10779 10781 10782 10783 10785 10786 10786 10787 10788 10789 10791 10792 10793 10793 10792 10791 10790 10789 10788 10787 10786 10784 10783 10781 10779 10778 10776 10774 10771 10770 10768 10765 10763 10761 10759 10758 10758 10757 10756 10755 10754 10754 10752 10751 10750 10749 10748 10748 10747 10746 10745 10744 10743 10742 10740 10739 10737 10735 10733 10731
10736 10739 10741 10742 10743 10743 10745 10748 10750 10751 10753 10754 10756 10758 10760 10761 10763 10765 10766 10768 10769 10769 10770 10771 10773 10775 10777 10778 10779 10781 10783 10784 10785 10785 10787 10789 10790 10790 10790 10790 10789 10788 10787 10786 10785 10784 10783 10781 10779 10778 10776 10774 10772 10770 10768 10767 10765 10762 10760 10759 10758 10757 10757 10756 10755 10754 10754 10753 10751 10750 10749 10749 10748 10747 10747 10746 10745 10743 10742 10741 10739 10737 10735 10733 10731
10731 10734 10738 10740 10743 10745 10747 10749 10749 10749 10750 10751 10753 10755 10756 10758 10759 10761 10763 10764 10765 10766 10766 10767 10769 10771 10773 10775 10776 10778 10780 10782 10782 10783 10785 10786 10787 10788 10788 10788 10787 10786 10785 10784 10783 10782 10781 10779 10778 10776 10774 10773 10771 10769 10767 10766 10764 10761 10760 10758 10757 10757 10756 10755 10755 10754 10753 10753 10752 10750 10749 10749 10748 10748 10747 10746 10745 10743 10742 10741 10739 10737 10735 10733 10730
10726 10730 10732 10734 10738 10742 10745 10747 10745 10745 10747 10748 10750 10752 10753 10755 10756 10758 10759 10760 10761 10762 10763 10764 10766 10767 10770 10771 10773 10775 10777 10779 10780 10780 10782 10784 10785 10785 10786 10786 10785 10785 10784 10782 10781 10781 10779 10778 10776 10775 10773 10771 10769 10767 10766 10765 10763 10761 10759 10758 10757 10756 10755 10755 10754 10754 10753 10752 10751 10750 10750 10749 10749 10748 10747 10746 10745 10743 10742 10740 10739 10737 10735 10733 10730
10721 10725 10726 10729 10733 10736 10740 10741 10740 10740 10742 10744 10746 10748 10750 10752 10753 10754 10755 10756 10757 10759 10760 10761 10762 10764 10766 10768 10770 10772 10774 10776 10777 10777 10780 10782 10782 10783 10784 10784 10783 10783 10782 10781 10780 10779 10778 10776 10775 10773 10772 10770 10768 10766 10765 10764 10762 10760 10758 10757 10756 10755 10755 10754 10754 10753 10753 10752 10751 10750 10750 10750 10749 10749 10748 10747 10745 10743 10742 10740 10739 10737 10735 10733 10730
10716 10719 10721 10725 10728 10730 10734 10736 10735 10736 10737 10738 10741 10744 10746 10748 10750 10751 10752 10753 10754 10755 10757 10758 10759 10761 10763 10765 10767 10769 10771 10773 10774 10775 10778 10779 10780 10781 10782 10782 10781 10780 10780 10779 10778 10777 10776 10774 10773 10772 10770 10768 10766 10765 10764 10763 10761 10759 10757 10757 10756 10755 10754 10754 10753 10753 10752 10751 10751 10750 10750 10750 10750 10749 10748 10747 10745 10744 10742 10740 10739 10737 10735 10732 10730
10710 10713 10716 10719 10722 10725 10728 10731 10732 10732 10733 10734 10737 10739 10742 10744 10746 10747 10749 10749 10750 10752 10753 10754 10755 10757 10760 10761 10763 10765 10767 10770 10771 10773 10775 10777 10777 10779 10780 10779 10779 10778 10777 10777 10776 10776 10774 10773 10771 10770 10768 10767 10765 10764 10763 10762 10760 10758 10757 10756 10756 10755 10754 10753 10753 10752 10751 10751 10750 10750 10750 10750 10750 10749 10748 10747 10746 10744 10742 10740 10738 10736 10734 10732 10730
10704 10708 10710 10714 10717 10720 10723 10727 10728 10729 10730 10732 10734 10736 10738 10740 10742 10744 10745 10746 10748 10749 10750 10751 10752 10754 10756 10758 10760 10762 10765 10767 10768 10770 10772 10773 10774 10776 10777 10777 10776 10775 10775 10775 10775 10774 10773 10772 10770 10768 10767 10765 10764 10763 10762 10761 10759 10757 10756 10756 10755 10755 10754 10753 10752 10751 10751 10750 10750 10750 10750 10750 10750 10749 10748 10748 10746 10744 10742 10740 10738 10736 10734 10732 10730
10698 10702 10706 10709 10713 10715 10718 10721 10723 10725 10727 10729 10731 10732 10733 10735 10738 10740 10742 10744 10746 10747 10747 10748 10749 10751 10753 10755 10757 10759 10761 10763 10765 10767 10769 10770 10772 10773 10774 10774 10773 10773 10772 10772 10773 10772 10771 10770 10768 10767 10765 10764 10763 10762 10761 10760 10758 10757 10756 10755 10755 10754 10753 10753 10752 10751 10750 10750 10750 10750 10750 10750 10749 10749 10748 10747 10746 10744 10743 10741 10738 10736 10734 10732 10730
10693 10696 10700 10704 10708 10711 10714 10717 10719 10722 10724 10726 10726 10727 10729 10731 10733 10736 10739 10741 10743 10745 10745 10746 10747 10748 10750 10752 10755 10757 10758 10760 10762 10764 10765 10767 10769 10770 10770 10770 10770 10770 10770 10770 10770 10770 10769 10768 10767 10765 10764 10763 10761 10761 10760 10759 10757 10756 10755 10755 10754 10754 10753 10752 10752 10751 10750 10750 10750 10750 10750 10749 10749 10748 10748 10747 10746 10744 10743 10741 10739 10737 10735 10733 10730
10687 10690 10694 10698 10703 10707 10710 10714 10718 10719 10720 10721 10722 10723 10725 10727 10730 10733 10736 10738 10741 10743 10743 10744 10744 10745 10747 10749 10752 10755 10756 10757 10759 10760 10762 10764 10766 10767 10768 10768 10767 10767 10767 10767 10768 10768 10767 10766 10765 10764 10763 10761 10760 10759 10759 10758 10757 10756 10755 10754 10754 10753 10753 10752 10752 10751 10750 10750 10750 10750 10749 10749 10748 10748 10747 10746 10745 10744 10743 10741 10739 10737 10735 10733 10731
10682 10685 10688 10692 10697 10701 10706 10711 10714 10715 10716 10718 10719 10721 10723 10725 10728 10731 10734 10736 10738 10741 10741 10742 10742 10743 10744 10746 10749 10752 10753 10755 10756 10757 10759 10761 10762 10764 10765 10766 10765 10764 10764 10764 10765 10765 10765 10764 10763 10762 10761 10760 10759 10758 10758 10757 10756 10755 10754 10754 10754 10753 10752 10752 10751 10751 10750 10750 10750 10750 10749 10749 10748 10747 10746 10745 10744 10743 10742 10741 10739 10737 10735 10733 10731
10675 10679 10682 10686 10691 10696 10700 10705 10709 10711 10713 10715 10717 10720 10722 10724 10727 10729 10731 10734 10736 10738 10739 10740 10740 10740 10741 10743 10746 10749 10751 10752 10753 10754 10756 10758 10759 10762 10764 10764 10763 10763 10762 10762 10762 10763 10763 10762 10761 10760 10759 10758 10757 10757 10757 10756 10755 10755 10754 10753 10753 10753 10752 10751 10751 10750 10750 10749 10749 10749 10749 10748 10747 10746 10746 10745 10744 10743 10742 10740 10739 10737 10735 10733 10731
10668 10672 10676 10680 10685 10690 10695 10699 10704 10708 10711 10714 10716 10719 10721 10723 10726 10727 10729 10732 10734 10735 10736 10737 10737 10737 10739 10740 10742 10745 10748 10749 10750 10751 10753 10755 10757 10760 10762 10762 10761 10761 10761 10761 10761 10761 10761 10761 10760 10759 10757 10756 10756 10755 10756 10755 10755 10754 10753 10753 10753 10752 10751 10751 10750 10750 10749 10749 10749 10749 10748 10748 10747 10746 10745 10744 10743 10742 10741 10740 10738 10737 10735 10733 10731
10660 10664 10669 10674 10679 10684 10689 10694 10698 10703 10708 10711 10714 10719 10721 10722 10723 10725 10727 10730 10732 10733 10733 10734 10734 10735 10737 10737 10738 10741 10744 10746 10747 10748 10751 10753 10755 10758 10759 10760 10760 10760 10760 10760 10759 10760 10760 10759 10759 10758 10756 10755 10754 10754 10754 10754 10754 10753 10752 10752 10752 10752 10751 10750 10750 10749 10749 10748 10748 10747 10747 10747 10746 10745 10744 10744 10743 10742 10740 10739 10738 10736 10734 10732 10730
10651 10656 10662 10667 10673 10679 10684 10689 10693 10698 10703 10705 10709 10715 10717 10719 10721 10722 10724 10727 10729 10729 10730 10730 10731 10733 10734 10735 10736 10738 10741 10744 10744 10746 10749 10751 10753 10756 10757 10758 10758 10757 10757 10757 10757 10758 10759 10758 10757 10757 10755 10754 10753 10752 10752 10753 10752 10752 10752 10751 10751 10751 10750 10750 10749 10749 10748 10748 10747 10746 10746 10745 10745 10744 10744 10743 10742 10741 10740 10738 10737 10735 10733 10731 10729
10644 10649 10654 10660 10667 10673 10679 10683 10688 10693 10695 10696 10700 10706 10709 10713 10716 10717 10719 10722 10724 10726 10726 10727 10729 10730 10731 10733 10734 10736 10739 10741 10741 10744 10747 10749 10750 10752 10753 10754 10755 10755 10755 10754 10754 10756 10757 10756 10755 10755 10754 10752 10751 10751 10751 10751 10751 10751 10751 10750 10750 10750 10749 10749 10748 10748 10747 10747 10746 10745 10745 10744 10743 10743 10742 10742 10741 10740 10739 10737 10736 10734 10732 10730 10728
10636 10642 10647 10654 10660 10667 10672 10677 10681 10685 10688 10690 10694 10697 10700 10705 10708 10710 10712 10715 10718 10722 10723 10724 10725 10727 10728 10730 10732 10734 10736 10737 10739 10742 10745 10746 10747 10748 10749 10750 10751 10751 10752 10751 10751 10753 10754 10754 10753 10753 10752 10751 10750 10749 10749 10749 10749 10749 10749 10749 10749 10749 10749 10748 10748 10747 10747 10746 10746 10745 10744 10743 10742 10742 10741 10741 10740 10739 10738 10736 10734 10732 10730 10728 10727
10630 10635 10640 10647 10653 10659 10665 10670 10674 10678 10681 10686 10690 10692 10695 10699 10703 10707 10709 10710 10711 10715 10718 10719 10721 10723 10724 10727 10728 10729 10730 10732 10735 10738 10741 10743 10743 10743 10745 10746 10746 10748 10748 10747 10748 10750 10751 10751 10751 10751 10750 10749 10748 10747 10747 10747 10748 10748 10748 10748 10748 10748 10748 10747 10747 10746 10746 10745 10745 10744 10743 10742 10741 10741 10740 10739 10738 10737 10736 10734 10732 10731 10729 10727 10725
10623 10629 10634 10640 10646 10651 10657 10663 10667 10671 10676 10681 10686 10689 10692 10695 10699 10703 10705 10707 10707 10709 10711 10713 10716 10719 10720 10721 10723 10723 10724 10727 10731 10733 10736 10738 10738 10739 10741 10741 10742 10743 10744 10744 10744 10746 10748 10748 10748 10748 10748 10747 10746 10745 10745 10746 10746 10746 10747 10747 10747 10747 10747 10746 10746 10745 10745 10744 10744 10743 10743 10742 10741 10740 10739 10738 10737 10736 10734 10733 10731 10730 10728 10726 10724
10617 10623 10628 10633 10639 10644 10651 10657 10661 10666 10671 10676 10681 10684 10687 10691 10695 10698 10701 10703 10704 10705 10706 10708 10711 10714 10715 10716 10718 10719 10720 10723 10726 10729 10732 10734 10735 10736 10737 10738 10738 10739 10740 10740 10741 10743 10744 10745 10745 10746 10745 10745 10744 10744 10743 10744 10744 10745 10745 10745 10745 10746 10745 10745 10745 10744 10744 10743 10743 10742 10742 10741 10740 10739 10738 10737 10736 10735 10733 10732 10730 10729 10727 10725 10723
10610 10616 10621 10626 10632 10638 10644 10650 10656 10660 10665 10670 10674 10678 10682 10686 10690 10692 10695 10698 10700 10702 10703 10705 10708 10711 10711 10712 10714 10715 10717 10719 10722 10725 10727 10729 10731 10732 10733 10735 10736 10736 10737 10737 10738 10739 10741 10742 10742 10743 10743 10742 10742 10742 10742 10742 10742 10743 10744 10744 10744 10744 10744 10744 10743 10743 10742 10742 10741 10741 10740 10740 10739 10738 10737 10736 10735 10734 10732 10731 10729 10727 10726 10724 10722
10603 10609 10615 10620 10626 10632 10637 10643 10650 10654 10658 10663 10668 10671 10675 10680 10684 10686 10689 10693 10696 10698 10700 10702 10705 10707 10707 10707 10709 10711 10712 10715 10718 10720 10723 10725 10727 10728 10730 10732 10733 10732 10733 10734 10735 10736 10738 10738 10739 10740 10740 10740 10740 10740 10740 10740 10740 10741 10741 10742 10742 10742 10742 10742 10741 10741 10740 10740 10740 10739 10739 10738 10737 10737 10736 10735 10733 10732 10731 10730 10728 10726 10724 10723 10721
10595 10601 10608 10613 10619 10625 10631 10636 10643 10648 10652 10658 10662 10665 10670 10675 10679 10682 10686 10689 10692 10695 10698 10699 10699 10700 10701 10702 10704 10706 10708 10711 10714 10716 10718 10721 10723 10725 10726 10728 10729 10729 10729 10730 10731 10733 10735 10735 10736 10737 10737 10737 10738 10738 10738 10738 10738 10738 10739 10740 10740 10740 10740 10740 10739 10739 10739 10738 10738 10737 10737 10736 10736 10735 10734 10733 10733 10732 10730 10729 10727 10726 10724 10722 10720
10588 10595 10601 10607 10612 10618 10624 10630 10636 10642 10647 10652 10656 10660 10665 10670 10674 10679 10683 10685 10688 10691 10693 10694 10693 10693 10695 10696 10698 10701 10704 10706 10709 10712 10714 10716 10719 10720 10721 10723 10724 10724 10725 10727 10728 10729 10730 10732 10733 10734 10734 10734 10735 10736 10736 10736 10735 10736 10736 10737 10737 10737 10737 10737 10737 10737 10737 10736 10736 10735 10735 10735 10734 10733 10733 10732 10732 10731 10730 10728 10727 10725 10723 10721 10719
10580 10587 10593 10599 10604 10611 10617 10623 10629 10636 10641 10646 10651 10655 10660 10665 10670 10674 10678 10681 10683 10685 10687 10688 10687 10686 10688 10690 10693 10696 10699 10702 10705 10707 10709 10713 10715 10715 10716 10717 10719 10719 10721 10723 10724 10724 10727 10729 10730 10730 10731 10731 10732 10733 10734 10734 10733 10734 10734 10734 10734 10734 10734 10735 10734 10734 10734 10734 10734 10733 10733 10733 10732 10732 10731 10731 10730 10729 10729 10728 10726 10724 10723 10721 10719
10572 10578 10584 10590 10596 10602 10609 10616 10623 10629 10635 10640 10645 10649 10655 10659 10663 10667 10671 10675 10676 10677 10679 10680 10679 10679 10682 10684 10686 10689 10693 10697 10699 10701 10704 10708 10709 10709 10709 10712 10713 10714 10716 10718 10719 10719 10723 10725 10725 10726 10727 10727 10728 10729 10730 10731 10731 10731 10731 10732 10732 10732 10732 10732 10732 10732 10732 10732 10732 10732 10731 10731 10730 10730 10729 10729 10728 10728 10727 10726 10725 10723 10722 10720 10718
10564 10569 10575 10582 10588 10594 10600 10607 10614 10621 10627 10632 10637 10641 10646 10649 10651 10654 10658 10660 10662 10664 10667 10668 10668 10670 10673 10676 10679 10682 10685 10689 10691 10694 10698 10700 10701 10702 10704 10706 10708 10709 10711 10712 10713 10714 10717 10720 10721 10722 10723 10723 10724 10725 10726 10727 10728 10728 10728 10729 10730 10730 10730 10730 10730 10730 10730 10730 10730 10730 10730 10729 10728 10728 10727 10726 10726 10725 10725 10724 10723 10722 10720 10718 10716
10556 10561 10567 10573 10579 10584 10590 10596 10602 10609 10614 10619 10623 10628 10632 10635 10637 10640 10642 10644 10647 10651 10654 10655 10656 10660 10664 10668 10673 10676 10678 10682 10684 10688 10691 10693 10695 10698 10699 10700 10702 10704 10705 10707 10708 10709 10712 10715 10716 10717 10718 10718 10719 10720 10722 10723 10724 10724 10724 10725 10726 10727 10727 10728 10728 10728 10728 10728 10728 10728 10728 10727 10726 10726 10725 10724 10724 10723 10723 10722 10721 10720 10719 10717 10715
10550 10554 10559 10564 10569 10574 10578 10584 10590 10595 10599 10603 10608 10613 10616 10618 10621 10625 10629 10631 10635 10639 10642 10644 10649 10654 10658 10664 10668 10670 10673 10676 10679 10683 10686 10687 10690 10693 10694 10695 10697 10698 10699 10702 10702 10703 10706 10709 10711 10711 10712 10713 10714 10715 10716 10718 10719 10720 10720 10721 10722 10723 10724 10725 10725 10726 10726 10726 10725 10726 10726 10725 10725 10724 10723 10722 10722 10721 10720 10719 10719 10718 10716 10715 10713
10544 10548 10552 10556 10560 10564 10568 10573 10578 10583 10589 10594 10598 10602 10605 10607 10613 10618 10620 10622 10627 10632 10636 10640 10645 10649 10653 10658 10661 10663 10667 10670 10674 10677 10680 10682 10685 10687 10687 10689 10690 10691 10693 10696 10697 10699 10701 10704 10706 10707 10707 10708 10709 10709 10711 10712 10714 10715 10716 10716 10717 10719 10720 10721 10722 10723 10723 10723 10723 10723 10724 10723 10723 10722 10721 10720 10719 10719 10718 10717 10716 10715 10714 10713 10711
10537 10540 10544 10548 10553 10557 10560 10565 10569 10574 10580 10586 10590 10594 10597 10602 10608 10612 10613 10616 10622 10627 10631 10634 10638 10641 10645 10649 10652 10655 10660 10664 10667 10670 10673 10676 10678 10679 10681 10682 10684 10686 10688 10691 10693 10695 10696 10697 10699 10701 10703 10703 10703 10704 10705 10707 10708 10710 10711 10712 10713 10714 10716 10717 10718 10719 10719 10720 10720 10720 10721 10721 10720 10719 10719 10718 10717 10716 10715 10714 10714 10713 10711 10710 10709
10529 10532 10536 10540 10544 10548 10553 10557 10561 10566 10572 10577 10581 10585 10589 10594 10598 10601 10605 10609 10614 10617 10620 10624 10628 10632 10637 10640 10644 10650 10654 10657 10660 10662 10665 10667 10669 10670 10672 10675 10679 10682 10683 10685 10688 10689 10689 10690 10692 10694 10697 10698 10698 10699 10700 10702 10703 10705 10706 10707 10708 10710 10711 10713 10714 10715 10715 10716 10716 10716 10717 10718 10717 10717 10716 10715 10714 10713 10713 10712 10711 10710 10709 10707 10706
10523 10525 10528 10532 10536 10540 10545 10549 10553 10558 10564 10569 10573 10576 10580 10585 10589 10592 10597 10601 10604 10607 10611 10615 10619 10624 10628 10631 10636 10640 10643 10645 10648 10651 10654 10656 10658 10659 10662 10666 10671 10673 10675 10679 10681 10682 10683 10683 10684 10687 10690 10692 10693 10694 10695 10697 10699 10700 10701 10703 10705 10705 10706 10707 10709 10711 10712 10712 10712 10713 10713 10714 10714 10714 10713 10712 10711 10710 10710 10709 10708 10708 10706 10704 10703
10517 10519 10522 10525 10528 10532 10536 10540 10544 10549 10554 10559 10564 10568 10572 10576 10579 10583 10587 10592 10595 10598 10602 10606 10610 10615 10618 10620 10623 10626 10629 10632 10635 10638 10641 10644 10647 10649 10652 10657 10660 10661 10665 10670 10672 10675 10677 10676 10677 10679 10682 10685 10687 10689 10690 10692 10695 10696 10697 10699 10701 10700 10701 10703 10704 10706 10707 10708 10709 10710 10710 10710 10711 10710 10709 10708 10707 10707 10707 10706 10706 10705 10704 10702 10701
10511 10512 10515 10517 10520 10524 10527 10531 10535 10540 10544 10549 10554 10558 10562 10566 10570 10573 10577 10582 10585 10588 10592 10596 10600 10605 10608 10610 10613 10617 10621 10624 10625 10627 10630 10634 10639 10642 10644 10648 10650 10651 10655 10659 10662 10666 10668 10669 10670 10672 10674 10678 10681 10683 10685 10688 10690 10691 10692 10694 10695 10696 10697 10699 10700 10701 10702 10703 10705 10706 10707 10707 10707 10706 10705 10704 10704 10704 10704 10703 10702 10702 10701 10699 10698
10505 10506 10507 10509 10512 10515 10518 10522 10526 10530 10534 10538 10543 10548 10552 10556 10560 10563 10567 10571 10575 10579 10582 10586 10591 10595 10598 10601 10604 10608 10613 10616 10617 10619 10622 10627 10632 10633 10635 10638 10641 10643 10647 10651 10655 10658 10658 10660 10663 10665 10667 10670 10672 10675 10679 10681 10683 10684 10685 10687 10690 10691 10693 10695 10696 10696 10697 10698 10700 10702 10703 10703 10702 10702 10701 10700 10699 10700 10700 10700 10699 10698 10697 10696 10695
10498 10498 10499 10501 10503 10506 10509 10512 10516 10519 10523 10528 10533 10537 10541 10545 10549 10553 10557 10561 10566 10571 10574 10578 10582 10586 10589 10592 10595 10599 10604 10608 10609 10611 10615 10619 10622 10624 10626 10630 10633 10636 10640 10643 10647 10649 10649 10653 10657 10658 10659 10662 10665 10668 10671 10673 10675 10676 10678 10682 10684 10686 10688 10690 10691 10691 10692 10694 10695 10698 10699 10697 10697 10697 10697 10696 10696 10696 10697 10697 10696 10695 10694 10693 10692
10491 10492 10492 10493 10495 10498 10501 10503 10505 10509 10512 10516 10521 10526 10530 10534 10538 10542 10546 10551 10556 10560 10565 10568 10571 10575 10579 10582 10585 10590 10596 10599 10599 10602 10606 10610 10613 10616 10618 10621 10624 10628 10631 10633 10636 10640 10642 10646 10650 10651 10652 10655 10658 10660 10663 10665 10667 10668 10671 10675 10677 10679 10682 10685 10685 10685 10687 10689 10690 10691 10693 10692 10691 10692 10692 10692 10692 10693 10693 10693 10693 10692 10691 10690 10689
10485 10485 10486 10486 10487 10489 10492 10494 10495 10497 10501 10504 10508 10513 10518 10522 10526 10530 10534 10539 10543 10548 10552 10556 10560 10564 10567 10571 10575 10580 10586 10588 10588 10592 10597 10600 10603 10606 10608 10611 10614 10618 10621 10623 10626 10630 10634 10638 10642 10643 10645 10648 10651 10652 10654 10656 10659 10661 10664 10667 10669 10671 10674 10677 10678 10678 10680 10682 10683 10685 10686 10686 10685 10686 10688 10688 10688 10688 10689 10689 10689 10689 10688 10687 10687
10480 10480 10480 10481 10481 10482 10483 10485 10486 10487 10489 10492 10496 10500 10505 10510 10515 10519 10523 10527 10532 10536 10541 10544 10548 10552 10555 10559 10564 10569 10576 10578 10577 10581 10586 10589 10592 10596 10598 10601 10604 10607 10610 10613 10616 10620 10625 10630 10634 10636 10638 10640 10642 10645 10646 10648 10651 10654 10656 10658 10661 10663 10666 10668 10670 10670 10671 10675 10677 10678 10680 10680 10680 10681 10682 10681 10683 10684 10684 10684 10685 10685 10685 10685 10684
10475 10475 10475 10475 10475 10475 10475 10476 10478 10478 10479 10482 10484 10488 10492 10497 10502 10507 10511 10516 10520 10525 10529 10533 10537 10541 10544 10548 10552 10558 10564 10567 10567 10571 10575 10578 10582 10585 10588 10591 10594 10597 10600 10602 10605 10611 10616 10621 10625 10628 10630 10631 10632 10636 10639 10640 10642 10645 10647 10650 10652 10655 10658 10660 10662 10664 10665 10668 10671 10673 10673 10674 10674 10676 10677 10675 10676 10679 10679 10679 10680 10680 10681 10682 10681
10470 10470 10469 10469 10469 10468 10468 10468 10469 10470 10471 10472 10474 10476 10480 10484 10489 10494 10498 10503 10508 10512 10517 10521 10525 10529 10533 10536 10540 10546 10552 10555 10557 10560 10564 10567 10571 10574 10577 10580 10583 10586 10588 10590 10595 10602 10606 10611 10614 10617 10620 10622 10624 10627 10630 10631 10633 10634 10638 10643 10644 10646 10650 10652 10655 10657 10659 10662 10665 10666 10666 10667 10667 10670 10672 10670 10669 10672 10674 10674 10674 10674 10675 10676 10677
10466 10465 10464 10463 10463 10462 10461 10461 10461 10461 10462 10463 10464 10466 10469 10472 10476 10481 10485 10490 10494 10499 10503 10508 10512 10517 10521 10524 10528 10532 10538 10542 10546 10549 10552 10556 10559 10563 10566 10569 10572 10575 10577 10580 10585 10590 10594 10599 10603 10606 10610 10613 10616 10618 10620 10623 10624 10625 10630 10635 10635 10636 10641 10644 10646 10649 10652 10655 10657 10656 10657 10658 10659 10662 10666 10666 10665 10666 10667 10668 10668 10669 10669 10670 10671
10461 10460 10459 10458 10457 10456 10455 10454 10454 10453 10453 10454 10455 10456 10459 10461 10464 10468 10471 10476 10480 10485 10489 10494 10498 10503 10507 10511 10515 10519 10523 10528 10532 10536 10540 10543 10547 10551 10554 10558 10561 10563 10565 10569 10573 10577 10581 10586 10591 10595 10599 10602 10606 10609 10611 10613 10615 10616 10621 10625 10626 10627 10632 10635 10638 10642 10646 10647 10647 10647 10649 10650 10652 10656 10659 10660 10661 10661 10661 10662 10663 10664 10664 10664 10665